Погода в Чёрном Озере

Россия / Республика Хакасия     54°41′17″N   89°25′46″E
темп.,
°C
ветер,
м/с
пор.,
м/с
влажн.,
%
обл.,
%
осадки,
мм/ч
давл.,
гПа
погр.,
м
22 октября, пт
пт2201:00+4ю1158100 0.0 101610
04:00+3ю115499 0.0 101610
07:00+3ю114796 0.0 101610
10:00+6ю1143100 0.0 101650
13:00+11ююв123531 0.0 1015196
16:00+12з5751100 0.0 1016751
19:00+7зюз51072100 0.0 1019943
22:00+4зюз61363100 0.0 10231185
23 октября, сб
сб2301:00+3зюз61365100 0.0 10251269
04:00+2зюз614636 0.0 10261266
07:00+1юз511625 0.0 1028595
10:00+3юз61453100 0.0 10271596
13:00+5юз7144357 0.0 10241739
16:00+5юз71654100 0.0 10231701
19:00+2юз61361100 0.0 10221071
22:00+3юз81864100 0.0 10211285
24 октября, вс
вс2401:00+3юз10197377 0.1 10191272
04:00+3зюз817675 0.0 10191125
07:00+3зюз7157366 0.0 1019977
10:00+4юз71578100 0.0 10191031
13:00+4юз71780100 0.2 10191380
16:00+4зюз71775100 0.1 10201345
19:00+4зюз7147698 0.1 1022999
22:00+5зюз7147336 0.0 10231067
25 октября, пн
пн2501:00+6з61168100 0.0 10231005
04:00+5ююз3775100 0.0 1024319
07:00+4ю3680100 0.0 1024162
10:00+5ююз3975100 0.0 1022529
13:00+5юз51281100 0.0 1021697
16:00+8юз61467100 0.0 1018935
19:00+7юз71569100 0.0 1018671
22:00+7зюз61367100 0.0 1019633
26 октября, вт
вт2601:00+6зюз51070100 0.0 1020314
04:00+3юз228441 0.0 102117
07:00+1юз229198 0.0 102324
10:00+4ююз127890 0.0 1022132
13:00+8юв2359100 0.0 1019401
16:00+8всв1157100 0.0 101624
19:00+5юв0173100 0.0 101510
22:00+4ююз117991 0.0 101411